Retour au catalogue

GLOBALSTAR M092

ActifCommunicationsLEO
NORAD 38043·PAYLOAD·🇺🇸 United States

Lancé Dec 28, 2011 depuis Baikonur Cosmodrome

Loading…

Prochains Passages (prochaines 24 heures)

TLE

FraisSource: Space-Track

Époque: Sep 14, 2026, 11:50 UTC

1 38043U 11080D   26257.49336951 -.00000135  00000-0 -17363-3 0  9994
2 38043  52.0073 153.0637 0000720  69.8501 101.1432 12.62265999679320

Suivez GLOBALSTAR M092 en temps réel avec AllMySat

Download on the App Store